DECAYED

STARLINK-1750, 46337 (Decayed)

Orbit data source: Space-Track

STARLINK-1750, 46337 was a payload satellite owned by SpaceX/Seattle (US) in LEO that was launched on Thu, 03 Sep 2020 UTC via an FALCON 9 launch vehicle from the Air Force Eastern Test Range (AFETR). Payload-class satellites include a variety of spacecraft equipped with specific instruments for various scientific and technological missions. These include communications satellites like Starlink; space stations such as the ISS; scientific satellites like the Hubble; Earth observation satellites from companies like Planet Labs, Umbra, and HawkEye 360; GPS; miniature CubeSats for education and research; and military/defense satellites.

Not visible in the next 10 days
Identifier
46337, 2020-062N
Orbit
Decayed
Country
Flag of USUS
Related business
Manufacturer
SpaceX/Seattle
Mission
Decayed Commercial Communications
Bus & Motor
STARLINK, Unknown motor
Mass
260 kg wet, ~248 kg dry
Launch date (UTC)
2020-09-03 (6 years ago)
Launch vehicle
FALCON 9
Launch site
Air Force Eastern Test Range (AFETR)
Object type
Payload
Rocket body
Debris
Shape & HBR
Box + 1 Pan, 10.1 m
Radar Cross Section
13.562 m², Large (>1 m²)

Expand to show TLE details & history
Last TLE update: 4 months ago

TLE from 4 months ago
0 STARLINK-1750
1 46337U 20062N   26062.22223916  .14097257  12481-4  30997-3 0  9992
2 46337  53.0217 322.9728 0006444 239.7336 120.3075 16.46245969304497
Epoch: 2026-03-03T05:20Z
TLE epoch observation values (Epoch: 2026-03-03T05:20:01.463Z)
Latitude
-0.00006°
Longitude
81.96226°
Altitude
152.293 km
Speed
7.815 km/s
True Right ascension
21h 31m 53s
True Declination
0° 00' 00"
Sunlit
Object was in daylight at epoch
Visualization orbit readout
Latitude
Unknown
Longitude
Unknown
Altitude
Unknown
Speed
Unknown
Apparent Right ascension
Unknown
Apparent Declination
Unknown
Sunlit
N/A
Visualization observer readout
Local Sidereal Time
23:18:34
Azimuth
Unknown
Elevation
Unknown
Doppler factor
Unknown
Orbital elements
Apogee altitude
153.739 km
Perigee altitude
145.326 km
Semi-major axis
6,527.669 km
Eccentricity
0.00064
Inclination
53.0217°
RAAN
322.9728°
Arg. of periapsis
239.7336°
True anomaly
120.37122°
Mean anomaly
120.3075°
Eccentric anomaly
120.33936°
Mean motion
4.11534 °/min
Orbital period
87.48 mins
BSTAR
0.00030997
Loading maneuver chart data...
Computing Atmospheric mass density...

Documentation

Showing up to 5 results
|